• In Czech Republic
  • List of Countries
  • For 7 days
  • Water Temperature
  • Satellite Maps
  • Weather Map
  • Weather Widgets
  • user-avatar
    Login

    Hourly Weather Udong

    Today, 12 December, Tuesday

    Time Temperature Precipitation Wind Pressure Humidity
    00:00 +26°C° 0 mm 1 mps 758 mmHg 72%
    01:00 +25°C° 0 mm 1 mps 758 mmHg 75%
    02:00 +25°C° 0 mm 1 mps 758 mmHg 76%
    03:00 +25°C° 0 mm 1 mps 758 mmHg 77%
    04:00 +24°C° 0 mm 1 mps 758 mmHg 79%
    05:00 +25°C° 0 mm 1 mps 758 mmHg 79%
    06:00 +25°C° 0 mm 1 mps 758 mmHg 80%
    07:00 +26°C° 0 mm 1 mps 758 mmHg 79%
    08:00 +27°C° 0 mm 1 mps 758 mmHg 74%
    09:00 +29°C° 0 mm 1 mps 758 mmHg 70%
    10:00 +30°C° 0 mm 1 mps 758 mmHg 65%
    11:00 +31°C° 0 mm 1 mps 758 mmHg 61%
    12:00 +32°C° 0 mm 1 mps 757 mmHg 58%
    13:00 +33°C° 0 mm 1 mps 756 mmHg 53%
    14:00 +33°C° 0 mm 1 mps 756 mmHg 55%
    15:00 +33°C° 0 mm 1 mps 756 mmHg 57%
    16:00 +33°C° 0 mm 1 mps 755 mmHg 58%
    17:00 +32°C° 0 mm 1 mps 756 mmHg 61%
    18:00 +31°C° 0 mm 1 mps 756 mmHg 63%
    19:00 +30°C° 0 mm 1 mps 756 mmHg 65%
    20:00 +29°C° 0 mm 1 mps 756 mmHg 68%
    21:00 +28°C° 0 mm 1 mps 757 mmHg 70%
    22:00 +28°C° 0 mm 1 mps 757 mmHg 73%
    23:00 +27°C° 0 mm 1 mps 757 mmHg 75%

    Tomorrow, 13 December, Wednesday

    Time Temperature Precipitation Wind Pressure Humidity
    00:00 +27°C° 0 mm 2 mps 757 mmHg 78%
    01:00 +27°C° 0 mm 2 mps 757 mmHg 80%
    02:00 +26°C° 0 mm 1 mps 757 mmHg 81%
    03:00 +26°C° 0 mm 1 mps 757 mmHg 83%
    04:00 +26°C° 0 mm 1 mps 756 mmHg 84%
    05:00 +26°C° 0 mm 1 mps 757 mmHg 84%
    06:00 +26°C° 0 mm 1 mps 757 mmHg 83%
    07:00 +24°C° 0 mm 0 mps 757 mmHg 83%
    08:00 +28°C° 0 mm 1 mps 758 mmHg 76%
    09:00 +29°C° 0 mm 1 mps 758 mmHg 70%
    10:00 +31°C° 0 mm 1 mps 758 mmHg 64%
    11:00 +32°C° 0 mm 1 mps 757 mmHg 61%
    12:00 +32°C° 0 mm 1 mps 757 mmHg 58%
    13:00 +34°C° 0 mm 2 mps 756 mmHg 56%
    14:00 +34°C° 0 mm 2 mps 756 mmHg 56%
    15:00 +34°C° 0 mm 2 mps 755 mmHg 57%
    16:00 +34°C° 0 mm 2 mps 755 mmHg 57%
    17:00 +32°C° 0 mm 2 mps 755 mmHg 61%
    18:00 +31°C° 0 mm 1 mps 755 mmHg 64%
    19:00 +29°C° 0 mm 1 mps 755 mmHg 68%
    20:00 +29°C° 0 mm 1 mps 756 mmHg 69%
    21:00 +29°C° 0 mm 1 mps 756 mmHg 71%
    22:00 +28°C° 0 mm 1 mps 757 mmHg 73%
    23:00 +28°C° 0 mm 1 mps 757 mmHg 74%

    Day after tomorrow, 14 December, Thursday

    Time Temperature Precipitation Wind Pressure Humidity
    00:00 +27°C° 0 mm 1 mps 757 mmHg 76%
    01:00 +27°C° 0 mm 1 mps 756 mmHg 78%
    02:00 +27°C° 0 mm 1 mps 756 mmHg 79%
    03:00 +26°C° 0 mm 1 mps 756 mmHg 81%
    04:00 +26°C° 0 mm 1 mps 756 mmHg 82%
    05:00 +26°C° 0 mm 1 mps 756 mmHg 82%
    06:00 +26°C° 0 mm 1 mps 757 mmHg 83%
    07:00 +26°C° 0 mm 1 mps 757 mmHg 83%
    08:00 +28°C° 0 mm 1 mps 757 mmHg 76%
    09:00 +29°C° 0 mm 2 mps 758 mmHg 70%
    10:00 +31°C° 0 mm 2 mps 758 mmHg 64%
    11:00 +32°C° 0 mm 2 mps 757 mmHg 60%
    12:00 +34°C° 0 mm 2 mps 756 mmHg 57%
    13:00 +35°C° 0 mm 2 mps 756 mmHg 54%
    14:00 +35°C° 0 mm 2 mps 755 mmHg 54%
    15:00 +34°C° 0 mm 2 mps 755 mmHg 54%
    16:00 +34°C° 0 mm 2 mps 754 mmHg 54%
    17:00 +32°C° 0 mm 2 mps 755 mmHg 58%
    18:00 +31°C° 0 mm 1 mps 755 mmHg 62%
    19:00 +29°C° 0 mm 1 mps 756 mmHg 66%
    20:00 +29°C° 0 mm 1 mps 756 mmHg 67%
    21:00 +28°C° 0 mm 1 mps 756 mmHg 69%
    22:00 +28°C° 0 mm 1 mps 757 mmHg 70%
    23:00 +28°C° 0 mm 1 mps 757 mmHg 72%

    15 December, Friday

    Time Temperature Precipitation Wind Pressure Humidity
    00:00 +27°C° 0 mm 1 mps 757 mmHg 73%
    01:00 +27°C° 0 mm 1 mps 757 mmHg 75%
    02:00 +26°C° 0 mm 1 mps 756 mmHg 76%
    03:00 +26°C° 0 mm 1 mps 756 mmHg 78%
    04:00 +26°C° 0 mm 2 mps 756 mmHg 79%
    05:00 +26°C° 0 mm 2 mps 756 mmHg 80%
    06:00 +26°C° 0 mm 2 mps 756 mmHg 80%
    07:00 +26°C° 0 mm 2 mps 757 mmHg 81%
    08:00 +28°C° 0 mm 2 mps 757 mmHg 74%
    09:00 +29°C° 0 mm 3 mps 757 mmHg 67%
    10:00 +31°C° 0 mm 3 mps 758 mmHg 60%
    11:00 +33°C° 0 mm 3 mps 757 mmHg 57%
    12:00 +34°C° 0 mm 3 mps 756 mmHg 54%
    13:00 +35°C° 0 mm 3 mps 756 mmHg 51%
    14:00 +34°C° 0 mm 3 mps 755 mmHg 52%
    15:00 +34°C° 0 mm 2 mps 755 mmHg 54%
    16:00 +34°C° 0 mm 2 mps 754 mmHg 56%
    17:00 +32°C° 0 mm 2 mps 755 mmHg 59%
    18:00 +30°C° 0 mm 2 mps 755 mmHg 62%
    19:00 +29°C° 0 mm 2 mps 756 mmHg 66%
    20:00 +29°C° 0 mm 2 mps 757 mmHg 67%
    21:00 +28°C° 0 mm 2 mps 757 mmHg 68%
    22:00 +28°C° 0 mm 2 mps 758 mmHg 70%
    23:00 +28°C° 0 mm 2 mps 758 mmHg 71%

    16 December, Saturday

    Time Temperature Precipitation Wind Pressure Humidity
    00:00 +27°C° 0 mm 2 mps 757 mmHg 72%
    01:00 +27°C° 0 mm 3 mps 757 mmHg 73%
    02:00 +26°C° 0 mm 3 mps 757 mmHg 74%
    03:00 +26°C° 0 mm 3 mps 757 mmHg 76%
    04:00 +25°C° 0 mm 3 mps 756 mmHg 77%
    05:00 +25°C° 0 mm 3 mps 757 mmHg 78%
    06:00 +25°C° 0 mm 3 mps 758 mmHg 79%
    07:00 +25°C° 0 mm 3 mps 758 mmHg 79%
    08:00 +27°C° 0 mm 3 mps 759 mmHg 73%
    09:00 +28°C° 0 mm 4 mps 759 mmHg 66%
    10:00 +30°C° 0 mm 5 mps 759 mmHg 60%
    11:00 +32°C° 0 mm 5 mps 758 mmHg 57%
    12:00 +33°C° 0 mm 5 mps 758 mmHg 53%
    13:00 +34°C° 0 mm 5 mps 757 mmHg 50%
    14:00 +34°C° 0 mm 4 mps 756 mmHg 51%
    15:00 +34°C° 0 mm 4 mps 756 mmHg 53%
    16:00 +34°C° 0 mm 4 mps 755 mmHg 54%
    17:00 +32°C° 0 mm 4 mps 756 mmHg 58%
    18:00 +30°C° 0 mm 3 mps 757 mmHg 61%
    19:00 +29°C° 0 mm 3 mps 757 mmHg 65%
    20:00 +28°C° 0 mm 4 mps 758 mmHg 65%
    21:00 +28°C° 0 mm 4 mps 758 mmHg 64%
    22:00 +28°C° 0 mm 5 mps 759 mmHg 63%
    23:00 +27°C° 0 mm 4 mps 759 mmHg 64%

    17 December, Sunday

    Time Temperature Precipitation Wind Pressure Humidity
    00:00 +26°C° 0 mm 4 mps 758 mmHg 65%
    01:00 +25°C° 0 mm 3 mps 758 mmHg 66%
    02:00 +25°C° 0 mm 3 mps 758 mmHg 67%
    03:00 +24°C° 0 mm 3 mps 758 mmHg 69%
    04:00 +24°C° 0 mm 2 mps 758 mmHg 71%
    05:00 +24°C° 0 mm 2 mps 758 mmHg 72%
    06:00 +24°C° 0 mm 3 mps 759 mmHg 74%
    07:00 +24°C° 0 mm 3 mps 760 mmHg 75%
    08:00 +25°C° 0 mm 4 mps 760 mmHg 69%
    09:00 +27°C° 0 mm 5 mps 760 mmHg 63%
    10:00 +29°C° 0 mm 6 mps 760 mmHg 57%
    11:00 +30°C° 0 mm 5 mps 759 mmHg 55%
    12:00 +30°C° 0 mm 5 mps 759 mmHg 53%
    13:00 +32°C° 0 mm 5 mps 758 mmHg 51%
    14:00 +32°C° 0 mm 5 mps 757 mmHg 52%
    15:00 +32°C° 0 mm 5 mps 757 mmHg 53%
    16:00 +32°C° 0 mm 4 mps 757 mmHg 54%
    17:00 +29°C° 0 mm 4 mps 757 mmHg 57%
    18:00 +28°C° 0 mm 3 mps 758 mmHg 60%
    19:00 +27°C° 0 mm 2 mps 758 mmHg 64%
    20:00 +27°C° 0 mm 2 mps 759 mmHg 64%
    21:00 +26°C° 0 mm 2 mps 759 mmHg 65%
    22:00 +26°C° 0 mm 2 mps 759 mmHg 66%
    23:00 +25°C° 0 mm 2 mps 759 mmHg 67%
    Show more